Regional Weather Roundup
Issued by NWS

Home | Current Version | Previous Version | Graphics & Text | Print | Product List | Glossary On
Versions: 1 2 3 4 5 6 7 8 9 10 11 12 13 14 15 16 17 18 19 20 21 22 23 24 25 26 27 28 29 30 31 32 33 34 35 36 37 38 39 40 41 42 43 44 45 46 47 48 49 50
804
ASUS43 KLMK 271202
RWRKY
KENTUCKY REGIONAL WEATHER ROUNDUP
NATIONAL WEATHER SERVICE LOUISVILLE KY
800 AM EDT THU JUL 27 2017

NOTE "FAIR" INDICATES FEW OR NO CLOUDS BELOW 12,000 FEET
WITH NO SIGNIFICANT WEATHER AND/OR OBSTRUCTIONS TO VISIBILITY.

KYZ001>023-026-027-061>063-070>075-271300-
WESTERN AND SOUTH CENTRAL KENTUCKY

CITY           SKY/WX    TMP DP  RH WIND       PRES   REMARKS
PADUCAH        CLOUDY    78  73  84 SW5       29.97R
HENDERSON      CLOUDY    76  75  97 CALM      29.98R
OWENSBORO      PTSUNNY   77  74  90 S5        29.97F
HOPKINSVILLE   PTSUNNY   77  74  92 SW7       30.00S
BOWLING GREEN  CLOUDY    79  77  94 SW5       30.01R
GLASGOW        NOT AVBL
$$

KYZ024-025-028>034-038-045-046-053-271300-
NORTH CENTRAL KENTUCKY

CITY           SKY/WX    TMP DP  RH WIND       PRES   REMARKS
LOUISVILLE/SDF LGT RAIN  79  75  87 W5        29.96S
LOUISVILLE/LOU LGT RAIN  79  76  90 SW7       29.97S FOG
FORT KNOX      NOT AVBL
$$

KYZ035>037-039>044-047>052-055>060-089>105-271300-
NORTHEAST KENTUCKY

CITY           SKY/WX    TMP DP  RH WIND       PRES   REMARKS
LEXINGTON      CLOUDY    78  72  81 SW6       29.99F
COVINGTON      CLOUDY    73  73 100 S6        29.98S
FRANKFORT      CLOUDY    78  72  81 VRB5      29.97S
$$

KYZ054-064>069-076>088-106>120-271300-
SOUTHEAST KENTUCKY

CITY           SKY/WX    TMP DP  RH WIND       PRES   REMARKS
JACKSON        CLOUDY    73  70  90 CALM      30.05R
LONDON         PTSUNNY   74  70  87 S6        30.04S
SOMERSET       CLOUDY    72  72 100 CALM      30.04F
MIDDLESBORO    CLOUDY    71  71  99 CALM      30.08R
MONTICELLO     CLOUDY    74  73  97 W9        30.05S
$$





USA.gov is the U.S. government's official web portal to all federal, state and local government web resources and services.